Weather History for KHQM - January, 2013

Change the Weather History Date:

Monday, January 7, 2013

  Actual Average Record
Temperature  
Mean Temperature 46 °F 42 °F  
Max Temperature 48 °F 46 °F 56 °F (2003)
Min Temperature 44 °F 38 °F 16 °F (1974)
Degree Days  
Heating Degree Days 19 23  
Month to date heating degree days 161  
Cooling Degree Days 0 0  
Month to date cooling degree days 0  
Year to date cooling degree days 0  
Moisture  
Dew Point 46 °F    
Average Humidity 94    
Maximum Humidity 100    
Minimum Humidity 82    
Precipitation  
Precipitation 1.09 in 0.36 in 3.48 in (2009)
Month to date precipitation 2.44  
Year to date precipitation 2.44  
Sea Level Pressure  
Sea Level Pressure 30.01 in    
Wind  
Wind Speed 14 mph (SW)    
Max Wind Speed 22 mph    
Max Gust Speed 29 mph    
Visibility 5 miles    
Events Rain    
T = Trace of Precipitation, MM = Missing Value Source: NWS Daily Summary

Daily Weather History Graph

Daily Weather History Graph

Search for Another Location

Airport or City:

Trip Planner

Search our weather history database for the weather conditions in past years. The results will help you decide how hot, cold, wet, or windy it might be!

Date:

Astronomy

Jan. 07, 2013 Rise Set
Actual Time 8:00 AM PST 4:44 PM PST
Civil Twilight 7:25 AM PST 5:19 PM PST
Nautical Twilight 6:47 AM PST 5:57 PM PST
Astronomical Twilight 6:10 AM PST 6:34 PM PST
Moon 3:26 AM PST (1/7) 1:02 PM PST (1/7)
Length of Visible Light 9h 53m
Length of Day
8h 43m
Waning Crescent, 21% of the Moon is Illuminated
Jan 7
Waning Crescent
Jan 11
New
Jan 18
First Quarter
Jan 26
Full
Feb 3
Last Quarter

Hourly Weather History & Observations

Time (PST) Temp. Windchill Dew Point Humidity Pressure Visibility Wind Dir Wind Speed Gust Speed Precip Events Conditions
12:40 AM 46.4 °F 39.2 °F 44.6 °F 93% 29.93 in 4.0 mi SSE 18.4 mph - 0.04 in Rain Light Rain
12:53 AM 46.0 °F 39.3 °F 45.0 °F 96% 29.94 in 4.0 mi SSE 16.1 mph - 0.06 in Rain Light Rain
1:07 AM 46.4 °F 40.4 °F 44.6 °F 93% 29.93 in 5.0 mi SSE 13.8 mph - 0.02 in Rain Light Rain
1:48 AM 46.4 °F 41.9 °F 46.4 °F 100% 29.91 in 2.5 mi South 9.2 mph - 0.10 in Rain Light Rain
1:53 AM 46.9 °F - 46.0 °F 97% 29.92 in 2.5 mi South 8.1 mph - 0.12 in Rain Rain
2:11 AM 46.4 °F 43.5 °F 46.4 °F 100% 29.90 in 3.0 mi SSE 5.8 mph - 0.03 in Rain Light Rain
2:44 AM 48.2 °F - 48.2 °F 100% 29.89 in 2.5 mi South 10.4 mph - 0.10 in Rain Rain
2:53 AM 48.0 °F - 48.0 °F 100% 29.91 in 3.0 mi SSW 8.1 mph - 0.12 in Rain Light Rain
3:11 AM 48.2 °F - 46.4 °F 93% 29.91 in 2.0 mi SSW 13.8 mph - 0.09 in Rain Rain
3:26 AM 48.2 °F - 46.4 °F 93% 29.92 in 3.0 mi SSW 12.7 mph - 0.15 in Rain Rain
3:38 AM 48.2 °F - 46.4 °F 93% 29.92 in 2.5 mi SSW 12.7 mph - 0.21 in Rain Rain
3:53 AM 48.0 °F - 46.9 °F 96% 29.91 in 3.0 mi SSW 12.7 mph - 0.26 in Rain Rain
4:07 AM 48.2 °F - 46.4 °F 93% 29.89 in 3.0 mi South 9.2 mph - 0.05 in Rain Rain
4:22 AM 48.2 °F - 48.2 °F 100% 29.88 in 4.0 mi South 10.4 mph - 0.10 in Rain Rain
4:51 AM 48.2 °F - 46.4 °F 93% 29.87 in 2.5 mi SSW 17.3 mph - 0.19 in Rain Light Rain
4:53 AM 48.0 °F - 46.9 °F 96% 29.88 in 2.5 mi SSW 17.3 mph - 0.20 in Rain Light Rain
5:13 AM 48.2 °F - 48.2 °F 100% 29.86 in 3.0 mi South 17.3 mph - N/A Rain Rain
5:23 AM 48.2 °F - 48.2 °F 100% 29.86 in 3.0 mi South 15.0 mph - 0.09 in Rain Rain
5:53 AM 48.9 °F - 48.0 °F 97% 29.88 in 2.0 mi South 13.8 mph - 0.18 in Rain Rain
6:04 AM 48.2 °F - 48.2 °F 100% 29.87 in 2.5 mi SSW 16.1 mph - 0.03 in Rain Light Rain
6:22 AM 48.2 °F - 48.2 °F 100% 29.88 in 1.8 mi SW 15.0 mph - 0.07 in Rain Light Rain
6:50 AM 48.2 °F - 48.2 °F 100% 29.88 in 2.0 mi SW 17.3 mph - 0.09 in Rain Light Rain
6:53 AM 48.9 °F - 48.0 °F 97% 29.89 in 1.8 mi SW 16.1 mph - 0.09 in Rain Light Rain
7:13 AM 48.2 °F - 48.2 °F 100% 29.88 in 2.0 mi SW 15.0 mph - 0.02 in Rain Light Rain
7:53 AM 48.9 °F - 48.0 °F 97% 29.90 in 2.5 mi SW 16.1 mph - 0.03 in   Overcast
8:37 AM 48.2 °F - 48.2 °F 100% 29.91 in 1.0 mi SW 17.3 mph - 0.01 in Rain Light Rain
8:53 AM 48.9 °F - 48.0 °F 97% 29.94 in 1.5 mi SW 19.6 mph - 0.01 in   Overcast
9:22 AM 48.2 °F - 48.2 °F 100% 29.93 in 2.5 mi SW 20.7 mph - 0.01 in   Overcast
9:34 AM 48.2 °F - 48.2 °F 100% 29.94 in 5.0 mi WSW 17.3 mph 28.8 mph 0.01 in   Overcast
9:53 AM 48.9 °F - 48.0 °F 97% 29.96 in 5.0 mi WSW 21.9 mph - 0.01 in   Overcast
10:01 AM 48.2 °F - 48.2 °F 100% 29.96 in 3.0 mi WSW 17.3 mph 26.5 mph N/A   Overcast
10:11 AM 48.2 °F - 48.2 °F 100% 29.97 in 2.5 mi SW 16.1 mph - N/A   Overcast
10:30 AM 48.2 °F - 46.4 °F 93% 29.98 in 4.0 mi WSW 20.7 mph 26.5 mph N/A   Overcast
10:40 AM 48.2 °F - 46.4 °F 93% 29.99 in 5.0 mi WSW 19.6 mph 26.5 mph N/A   Overcast
10:50 AM 48.2 °F - 46.4 °F 93% 29.99 in 9.0 mi WSW 16.1 mph 25.3 mph N/A   Overcast
10:53 AM 48.2 °F - 46.4 °F 93% 29.99 in 10.0 mi WSW 17.3 mph 25.3 mph N/A   Overcast
11:01 AM 48.2 °F - 46.4 °F 93% 30.00 in 1.8 mi WSW 19.6 mph - N/A   Overcast
11:12 AM 48.2 °F - 46.4 °F 93% 30.00 in 1.2 mi WSW 17.3 mph - 0.01 in Rain Light Rain
11:21 AM 48.2 °F - 46.4 °F 93% 30.00 in 1.8 mi WSW 16.1 mph 23.0 mph 0.01 in   Overcast
11:28 AM 48.2 °F - 46.4 °F 93% 30.01 in 3.0 mi WSW 13.8 mph - 0.01 in   Overcast
11:35 AM 48.2 °F - 46.4 °F 93% 30.01 in 4.0 mi WSW 17.3 mph - 0.01 in   Overcast
11:49 AM 48.2 °F - 46.4 °F 93% 30.01 in 2.5 mi WSW 17.3 mph - 0.01 in   Overcast
11:53 AM 48.0 °F - 46.9 °F 96% 30.03 in 1.8 mi WSW 19.6 mph - 0.01 in   Overcast
11:58 AM 48.2 °F - 46.4 °F 93% 30.03 in 2.0 mi WSW 18.4 mph 25.3 mph N/A   Overcast
12:02 PM 48.2 °F - 46.4 °F 93% 30.03 in 3.0 mi WSW 17.3 mph 24.2 mph N/A   Overcast
12:21 PM 48.2 °F - 46.4 °F 93% 30.03 in 4.0 mi WSW 15.0 mph 28.8 mph N/A   Overcast
12:43 PM 48.2 °F - 46.4 °F 93% 30.02 in 2.5 mi WSW 16.1 mph 26.5 mph N/A Rain Light Rain
12:51 PM 48.2 °F - 46.4 °F 93% 30.03 in 9.0 mi WSW 13.8 mph 21.9 mph 0.00 in   Overcast
12:53 PM 48.0 °F - 46.9 °F 96% 30.04 in 10.0 mi WSW 15.0 mph - 0.00 in   Overcast
1:09 PM 48.2 °F - 46.4 °F 93% 30.04 in 8.0 mi WSW 15.0 mph 24.2 mph N/A   Overcast
1:20 PM 48.2 °F - 46.4 °F 93% 30.05 in 7.0 mi WSW 17.3 mph - 0.00 in   Overcast
1:53 PM 48.0 °F - 46.0 °F 93% 30.07 in 10.0 mi WSW 11.5 mph - 0.00 in   Overcast
2:09 PM 48.2 °F - 46.4 °F 93% 30.06 in 2.5 mi WSW 16.1 mph - 0.01 in Rain Light Rain
2:22 PM 48.2 °F - 46.4 °F 93% 30.07 in 9.0 mi WSW 13.8 mph - 0.01 in   Overcast
2:53 PM 48.2 °F - 44.6 °F 87% 30.08 in 10.0 mi West 20.7 mph 25.3 mph N/A   Overcast
3:53 PM 48.0 °F - 45.0 °F 89% 30.11 in 7.0 mi WSW 12.7 mph 20.7 mph N/A   Overcast
4:11 PM 48.2 °F - 44.6 °F 87% 30.10 in 7.0 mi WSW 13.8 mph - N/A   Overcast
4:48 PM 48.2 °F - 44.6 °F 87% 30.12 in 10.0 mi West 19.6 mph - N/A   Mostly Cloudy
4:53 PM 48.9 °F - 44.1 °F 83% 30.14 in 10.0 mi West 17.3 mph - N/A   Overcast
5:00 PM 48.2 °F - 44.6 °F 87% 30.12 in 8.0 mi West 17.3 mph - 0.00 in Rain Light Rain
5:13 PM 48.2 °F - 42.8 °F 82% 30.13 in 10.0 mi West 16.1 mph - 0.00 in   Mostly Cloudy
5:53 PM 48.0 °F - 43.0 °F 83% 30.16 in 10.0 mi West 10.4 mph - 0.00 in   Mostly Cloudy
6:53 PM 46.0 °F 42.5 °F 43.0 °F 89% 30.16 in 9.0 mi WSW 6.9 mph - N/A   Overcast
7:53 PM 46.0 °F 44.8 °F 43.0 °F 89% 30.17 in 9.0 mi West 3.5 mph - N/A   Mostly Cloudy
8:16 PM 46.4 °F - 42.8 °F 87% 30.16 in 9.0 mi Calm Calm - N/A   Mostly Cloudy
8:53 PM 46.0 °F 44.8 °F 43.0 °F 89% 30.18 in 8.0 mi West 3.5 mph - N/A   Overcast
9:09 PM 46.4 °F 44.3 °F 44.6 °F 93% 30.17 in 7.0 mi West 4.6 mph - N/A   Overcast
9:30 PM 46.4 °F 44.3 °F 44.6 °F 93% 30.18 in 7.0 mi West 4.6 mph - N/A   Overcast
9:53 PM 45.0 °F - 44.1 °F 97% 30.18 in 8.0 mi Calm Calm - N/A   Overcast
10:43 PM 44.6 °F - 42.8 °F 93% 30.17 in 7.0 mi Calm Calm - N/A   Overcast
10:53 PM 44.1 °F - 43.0 °F 96% 30.19 in 7.0 mi Calm Calm - N/A   Mostly Cloudy
11:26 PM 44.6 °F - 42.8 °F 93% 30.18 in 6.0 mi Calm Calm - N/A   Overcast
11:53 PM 44.1 °F - 43.0 °F 96% 30.19 in 7.0 mi Calm Calm - N/A   Mostly Cloudy